When you browse on this site, cookies collect data to enhance your experience and personalize the content and advertising you see.
Visit our Privacy Policy to learn more. By continuing to use the site, you agree to this use of cookies and data.
EN

Hourly Weather Mysen

Today, 13 August, Thursday

Time Temperature Precipitation Wind Pressure Humidity
00:00 +16°C° 0 mm 1 mps 754 mmHg 84%
01:00 +16°C° 0 mm 1 mps 754 mmHg 86%
02:00 +16°C° 0 mm 1 mps 754 mmHg 86%
03:00 +15°C° 0 mm 1 mps 753 mmHg 86%
04:00 +15°C° 0 mm 1 mps 753 mmHg 86%
05:00 +16°C° 0 mm 1 mps 753 mmHg 81%
06:00 +19°C° 0 mm 1 mps 753 mmHg 75%
07:00 +20°C° 0 mm 1 mps 753 mmHg 66%
08:00 +22°C° 0 mm 1 mps 753 mmHg 61%
09:00 +23°C° 0 mm 2 mps 753 mmHg 56%
10:00 +25°C° 0 mm 2 mps 753 mmHg 51%
11:00 +25°C° 0 mm 2 mps 753 mmHg 50%
12:00 +26°C° 0 mm 3 mps 752 mmHg 49%
13:00 +26°C° 0 mm 3 mps 752 mmHg 48%
14:00 +26°C° 0 mm 3 mps 752 mmHg 47%
15:00 +26°C° 0 mm 4 mps 751 mmHg 47%
16:00 +25°C° 0 mm 4 mps 751 mmHg 47%
17:00 +24°C° 0 mm 3 mps 751 mmHg 51%
18:00 +21°C° 0 mm 3 mps 751 mmHg 55%
19:00 +20°C° 0 mm 2 mps 750 mmHg 58%
20:00 +19°C° 0.1 mm 2 mps 750 mmHg 68%
21:00 +17°C° 0.1 mm 2 mps 751 mmHg 77%
22:00 +16°C° 0.1 mm 2 mps 751 mmHg 86%
23:00 +16°C° 0 mm 2 mps 751 mmHg 86%

Tomorrow, 14 August, Friday

Time Temperature Precipitation Wind Pressure Humidity
00:00 +16°C° 0 mm 2 mps 750 mmHg 87%
01:00 +16°C° 0 mm 2 mps 750 mmHg 87%
02:00 +16°C° 0 mm 2 mps 750 mmHg 88%
03:00 +15°C° 0 mm 2 mps 750 mmHg 88%
04:00 +15°C° 0 mm 1 mps 750 mmHg 89%
05:00 +16°C° 0 mm 1 mps 750 mmHg 85%
06:00 +19°C° 0 mm 1 mps 750 mmHg 81%
07:00 +20°C° 0 mm 1 mps 750 mmHg 77%
08:00 +21°C° 0 mm 2 mps 750 mmHg 70%
09:00 +23°C° 0 mm 2 mps 750 mmHg 64%
10:00 +25°C° 0 mm 2 mps 750 mmHg 57%
11:00 +26°C° 0 mm 2 mps 750 mmHg 55%
12:00 +26°C° 0 mm 3 mps 750 mmHg 52%
13:00 +27°C° 0 mm 3 mps 749 mmHg 49%
14:00 +27°C° 0 mm 3 mps 749 mmHg 51%
15:00 +26°C° 0 mm 3 mps 749 mmHg 53%
16:00 +26°C° 0 mm 3 mps 749 mmHg 55%
17:00 +24°C° 0 mm 3 mps 749 mmHg 62%
18:00 +22°C° 0 mm 3 mps 749 mmHg 69%
19:00 +20°C° 0 mm 2 mps 749 mmHg 76%
20:00 +19°C° 0 mm 2 mps 749 mmHg 83%
21:00 +18°C° 0 mm 2 mps 750 mmHg 90%
22:00 +16°C° 0 mm 1 mps 750 mmHg 96%
23:00 +16°C° 0 mm 1 mps 750 mmHg 96%

Day after tomorrow, 15 August, Saturday

Time Temperature Precipitation Wind Pressure Humidity
00:00 +16°C° 0 mm 1 mps 750 mmHg 97%
01:00 +15°C° 0 mm 1 mps 750 mmHg 97%
02:00 +15°C° 0 mm 1 mps 750 mmHg 97%
03:00 +15°C° 0 mm 1 mps 750 mmHg 97%
04:00 +15°C° 0 mm 1 mps 751 mmHg 97%
05:00 +16°C° 0 mm 1 mps 751 mmHg 93%
06:00 +18°C° 0 mm 1 mps 751 mmHg 89%
07:00 +19°C° 0 mm 1 mps 751 mmHg 85%
08:00 +20°C° 0 mm 2 mps 751 mmHg 75%
09:00 +23°C° 0 mm 2 mps 751 mmHg 66%
10:00 +25°C° 0 mm 2 mps 751 mmHg 56%
11:00 +25°C° 0 mm 3 mps 751 mmHg 53%
12:00 +26°C° 0 mm 3 mps 751 mmHg 50%
13:00 +26°C° 0 mm 4 mps 751 mmHg 47%
14:00 +26°C° 0 mm 4 mps 751 mmHg 47%
15:00 +26°C° 0 mm 4 mps 750 mmHg 48%
16:00 +25°C° 0 mm 4 mps 750 mmHg 48%
17:00 +24°C° 0 mm 3 mps 750 mmHg 55%
18:00 +21°C° 0 mm 3 mps 750 mmHg 62%
19:00 +20°C° 0 mm 3 mps 750 mmHg 69%
20:00 +18°C° 0 mm 2 mps 750 mmHg 78%
21:00 +17°C° 0 mm 2 mps 750 mmHg 87%
22:00 +15°C° 0 mm 2 mps 750 mmHg 96%
23:00 +15°C° 0 mm 1 mps 750 mmHg 96%

16 August, Sunday

Time Temperature Precipitation Wind Pressure Humidity
00:00 +14°C° 0 mm 1 mps 750 mmHg 96%
01:00 +14°C° 0 mm 1 mps 750 mmHg 97%
02:00 +14°C° 0 mm 1 mps 750 mmHg 97%
03:00 +14°C° 0 mm 1 mps 751 mmHg 97%
04:00 +13°C° 0 mm 0 mps 751 mmHg 97%
05:00 +14°C° 0 mm 0 mps 751 mmHg 93%
06:00 +15°C° 0 mm 0 mps 751 mmHg 89%
07:00 +16°C° 0 mm 0 mps 751 mmHg 85%
08:00 +18°C° 0 mm 0 mps 751 mmHg 75%
09:00 +22°C° 0 mm 1 mps 752 mmHg 64%
10:00 +25°C° 0 mm 1 mps 752 mmHg 54%
11:00 +25°C° 0 mm 1 mps 752 mmHg 49%
12:00 +26°C° 0 mm 2 mps 751 mmHg 45%
13:00 +27°C° 0 mm 2 mps 751 mmHg 41%
14:00 +26°C° 0 mm 2 mps 751 mmHg 40%
15:00 +26°C° 0 mm 3 mps 751 mmHg 40%
16:00 +26°C° 0 mm 3 mps 750 mmHg 39%
17:00 +24°C° 0 mm 2 mps 750 mmHg 47%
18:00 +21°C° 0 mm 2 mps 750 mmHg 55%
19:00 +19°C° 0 mm 2 mps 750 mmHg 63%
20:00 +19°C° 0 mm 1 mps 750 mmHg 71%
21:00 +16°C° 0 mm 1 mps 750 mmHg 79%
22:00 +15°C° 0 mm 1 mps 750 mmHg 86%
23:00 +15°C° 0 mm 1 mps 750 mmHg 89%

17 August, Monday

Time Temperature Precipitation Wind Pressure Humidity
00:00 +14°C° 0 mm 1 mps 750 mmHg 91%
01:00 +14°C° 0 mm 1 mps 750 mmHg 94%
02:00 +14°C° 0 mm 1 mps 750 mmHg 94%
03:00 +14°C° 0 mm 1 mps 749 mmHg 95%
04:00 +14°C° 0 mm 1 mps 749 mmHg 95%
05:00 +15°C° 0 mm 1 mps 749 mmHg 91%
06:00 +18°C° 0 mm 1 mps 749 mmHg 87%
07:00 +19°C° 0 mm 1 mps 749 mmHg 83%
08:00 +21°C° 0 mm 1 mps 749 mmHg 75%
09:00 +21°C° 0 mm 2 mps 748 mmHg 67%
10:00 +24°C° 0 mm 2 mps 748 mmHg 59%
11:00 +25°C° 0 mm 2 mps 748 mmHg 56%
12:00 +26°C° 0 mm 3 mps 748 mmHg 53%
13:00 +27°C° 0 mm 3 mps 747 mmHg 50%
14:00 +27°C° 0 mm 3 mps 747 mmHg 51%
15:00 +26°C° 0 mm 3 mps 747 mmHg 52%
16:00 +26°C° 0 mm 3 mps 746 mmHg 52%
17:00 +25°C° 0 mm 3 mps 746 mmHg 59%
18:00 +23°C° 0 mm 2 mps 746 mmHg 66%
19:00 +21°C° 0 mm 2 mps 746 mmHg 72%
20:00 +20°C° 0 mm 2 mps 746 mmHg 78%
21:00 +19°C° 0 mm 1 mps 746 mmHg 84%
22:00 +18°C° 0 mm 1 mps 747 mmHg 90%
23:00 +16°C° 0 mm 1 mps 747 mmHg 91%

18 August, Tuesday

Time Temperature Precipitation Wind Pressure Humidity
00:00 +16°C° 0 mm 1 mps 747 mmHg 92%
01:00 +16°C° 0 mm 1 mps 747 mmHg 93%
02:00 +16°C° 0 mm 1 mps 747 mmHg 94%
03:00 +15°C° 0 mm 1 mps 747 mmHg 95%
04:00 +15°C° 0 mm 1 mps 747 mmHg 95%
05:00 +16°C° 0 mm 1 mps 747 mmHg 90%
06:00 +19°C° 0 mm 1 mps 747 mmHg 84%
07:00 +20°C° 0 mm 1 mps 746 mmHg 79%
08:00 +22°C° 0 mm 1 mps 747 mmHg 71%
09:00 +23°C° 0 mm 2 mps 747 mmHg 64%
10:00 +25°C° 0 mm 2 mps 747 mmHg 56%
11:00 +26°C° 0 mm 3 mps 746 mmHg 53%
12:00 +26°C° 0 mm 3 mps 746 mmHg 50%
13:00 +27°C° 0 mm 3 mps 746 mmHg 47%
14:00 +26°C° 0 mm 4 mps 746 mmHg 48%
15:00 +26°C° 0 mm 4 mps 746 mmHg 48%
16:00 +26°C° 0 mm 4 mps 745 mmHg 48%
17:00 +24°C° 0 mm 3 mps 745 mmHg 55%
18:00 +22°C° 0 mm 3 mps 745 mmHg 61%
19:00 +20°C° 0 mm 2 mps 745 mmHg 67%
20:00 +19°C° 0 mm 2 mps 745 mmHg 75%
21:00 +18°C° 0 mm 2 mps 745 mmHg 82%
22:00 +16°C° 0 mm 2 mps 746 mmHg 89%
23:00 +16°C° 0 mm 2 mps 745 mmHg 91%
Show more